Content
SEND FEEDBACK

Daily
Averages
Monthly
Summary
United States of America

ARBON VALLEY, IDAHO


Home > North America > United States > Idaho
Elevation: 4478 feet     Latitude: 42 55N     Longitude: 112 36W

WEATHER
 
SELECT A DAY
Number of Records: 193,563;   Date Range: 1/1/95 - 9/20/14
 
SHARE

PRINT THIS DATA

[ ← Previous Day ]
WEATHER ALMANAC - FEBRUARY 13, 2013
[ Next Day → ]
[ °C ]   °F
Weather ElementAverageHighLow
Temperature33.5 °F37.9 °F (3:53 pm)30 °F (12:53 am)
Dewpoint23.4 °F27 °F (11:53 pm)19.9 °F (5:53 am)
Humidity66.4 %72 % (11:53 pm)62 % (3:53 pm)
Barometer30.27 in30.34 in (12:53 am)30.18 in (8:53 pm)
Wind Speed15 mph19.6 mph (11:53 am)
Wind Gust35.7 mph (8:53 pm)
Weather ElementAverage
Visibility10 mi
Wind DirectionSSW (199.6 °)

Weather ElementTotal
Precipitation---
Heating Degree Days31.1 (Base 65)
Averaged from 27 records on February 13, 2013
WEATHER CONDITIONS BREAKOUT
WIND DIRECTION BREAKOUT
WEATHER BY HOUR - FEBRUARY 13, 2013
[ °C ]   °F
Local TimeTemperatureDewpointHumidityBarometerVisibilityWind DirectionWind SpeedGust SpeedPrecipitationEventsConditions
12:53 AM30.0 °F21.0 °F69 %30.34 in10.0 miSSW (200°)10.4 mphPartly Cloudy
1:09 AM30.2 °F21.2 °F69 %30.28 in10.0 miSSW (210°)10.4 mphMostly Cloudy
1:53 AM30.9 °F21.9 °F69 %30.34 in10.0 miSSW (200°)9.2 mphOvercast
2:53 AM30.0 °F21.0 °F69 %30.34 in10.0 miSSW (210°)10.4 mphOvercast
3:53 AM32.0 °F21.0 °F64 %30.33 in10.0 miSSW (200°)11.5 mphOvercast
4:53 AM32.0 °F21.0 °F64 %30.30 in10.0 miSSW (200°)16.1 mphOvercast
5:13 AM30.2 °F21.2 °F69 %30.23 in10.0 miSSW (200°)16.1 mphMostly Cloudy
5:34 AM30.2 °F21.2 °F69 %30.25 in10.0 miSSW (210°)9.2 mphMostly Cloudy
5:53 AM30.0 °F19.9 °F66 %30.34 in10.0 miSSW (200°)11.5 mphOvercast
6:53 AM30.9 °F21.9 °F69 %30.31 in10.0 miSSW (200°)15.0 mphMostly Cloudy
7:53 AM32.0 °F23.0 °F69 %30.30 in10.0 miSSW (200°)12.7 mphOvercast
8:53 AM32.0 °F21.9 °F66 %30.31 in10.0 miSSW (200°)15.0 mphMostly Cloudy
9:53 AM34.0 °F23.0 °F64 %30.31 in10.0 miSSW (200°)16.1 mphOvercast
10:53 AM34.0 °F23.0 °F64 %30.30 in10.0 miSSW (200°)18.4 mph24.2 mphOvercast
11:53 AM35.1 °F24.1 °F64 %30.29 in10.0 miSSW (200°)19.6 mphOvercast
12:53 PM35.1 °F24.1 °F64 %30.27 in10.0 miSouth (190°)19.6 mph25.3 mphOvercast
1:53 PM35.1 °F24.1 °F64 %30.25 in10.0 miSouth (190°)19.6 mph27.6 mphOvercast
2:53 PM36.0 °F25.0 °F64 %30.24 in10.0 miSouth (180°)18.4 mph26.5 mphOvercast
3:53 PM37.9 °F26.1 °F62 %30.22 in10.0 miSSW (200°)19.6 mphOvercast
4:53 PM37.0 °F25.0 °F62 %30.21 in10.0 miSouth (190°)16.1 mph24.2 mphMostly Cloudy
5:53 PM36.0 °F26.1 °F67 %30.22 in10.0 miSouth (180°)12.7 mphMostly Cloudy
6:53 PM36.0 °F26.1 °F67 %30.22 in10.0 miSouth (180°)15.0 mphMostly Cloudy
7:53 PM36.0 °F26.1 °F67 %30.22 in10.0 miSSW (200°)15.0 mph20.7 mphClear
8:53 PM37.0 °F26.1 °F65 %30.18 in10.0 miSSW (210°)19.6 mph35.7 mphPartly Cloudy
9:53 PM36.0 °F26.1 °F67 %30.20 in10.0 miSSW (210°)19.6 mph26.5 mphOvercast
10:53 PM35.1 °F25.0 °F67 %30.21 in10.0 miSSW (210°)12.7 mph21.9 mphOvercast
11:53 PM35.1 °F27.0 °F72 %30.23 in10.0 miSW (220°)16.1 mphOvercast
Hourly data recorded from KPIH, located miles away from Arbon Valley, Idaho







STORIES FROM OUR PARTNERS